Cloud_Cover
0 0 0 5 35 5 5 15 100 100 63 8 44 50 99 100 95 43 5 5 5 5 8 39 95 100 100 100 100 100 98 100 100 100 93 91 97 66 100 83 8 82 33 5
0 0 0 0 0 0 0 0 2 35 10 5 13 58 8 5 5 5 5 5 5 5 73 99 100 100 99 76 19 68 89 100 100 100 99 64 100 75 34 15 65 13 5 5
5 0 0 0 0 0 0 0 0 0 1 5 5 95 51 41 56 8 5 5 5 5 48 86 52 11 5 36 37 85 95 92 100 99 99 100 66 11 49 95 48 37 5 5
5 0 0 0 0 0 0 0 0 0 1 3 0 0 0 0 0 0 4 5 5 7 6 5 5 4 2 0 4 14 91 100 100 100 100 44 5 59 59 93 77 86 72 53
94 5 0 0 0 0 0 0 0 0 0 0 0 0 0 0 0 0 0 0 0 0 0 6 5 7 31 100 100 100 100 100 100 100 98 64 94 87 100 98 94 94 91 79
60 5 0 0 1 5 4 0 0 0 0 1 2 4 4 3 7 5 20 7 5 14 68 89 100 100 98 100 100 100 94 100 100 100 29 23 91 99 100 65 89 62 59 64
0 0 0 2 0 2 4 1 0 0 0 5 5 5 3 6 9 4 5 26 81 68 84 91 100 100 100 98 90 77 100 100 100 89 52 95 92 98 94 97 95 100 100 47
0 0 0 5 5 5 5 5 4 2 5 19 5 5 2 4 5 5 5 5 5 59 100 100 100 100 44 74 88 100 99 100 40 98 100 99 100 99 100 100 100 89 100 99
0 0 0 0 5 57 99 63 6 24 99 100 100 100 28 62 68 82 100 98 100 100 98 88 37 5 68 99 100 100 100 100 79 100 100 100 100 100 100 98 71 100 100 100
0 0 0 0 0 2 70 100 100 100 100 100 100 100 100 100 100 100 100 99 46 3 4 2 5 5 65 84 100 100 100 96 100 100 100 100 89 100 100 94 98 95 100 100
0 0 0 0 0 0 0 3 15 35 57 65 94 86 89 97 44 8 0 0 0 0 0 4 5 5 51 100 100 100 100 100 100 100 80 96 69 95 99 100 99 70 99 99
0 0 0 0 0 0 4 5 5 7 5 5 5 0 0 0 0 0 0 0 0 0 0 0 4 22 100 100 100 100 100 100 100 92 100 100 100 100 100 100 100 100 100 99
0 0 0 0 0 0 0 0 0 1 1 0 0 0 0 0 0 0 0 0 0 0 0 0 0 60 100 100 100 96 83 94 86 94 94 98 99 100 99 86 96 100 68 11
0 1 2 0 0 0 0 0 0 0 0 0 0 0 0 0 0 0 0 0 0 0 0 5 17 66 100 100 100 100 96 96 92 86 100 100 98 100 98 100 100 92 18 25
2 1 0 0 0 0 0 0 0 0 0 0 0 0 0 0 0 0 0 0 0 0 5 17 75 99 100 96 96 83 85 86 78 97 82 66 98 77 55 6 5 5 5 19
0 0 0 0 0 0 0 0 0 0 0 0 0 0 0 0 0 0 0 0 0 5 29 74 95 96 100 100 90 88 98 84 96 100 75 48 74 5 5 10 5 8 2 0
0 0 0 0 0 0 0 0 0 0 0 0 0 0 0 0 0 0 0 5 5 70 98 100 100 100 100 100 100 93 74 100 57 5 5 45 23 5 0 0 0 0 0 0
0 0 0 0 0 0 0 0 0 0 0 0 0 0 0 0 0 5 5 24 92 100 100 100 100 100 100 99 93 76 69 15 5 5 3 5 0 0 0 0 0 0 0 0
5 0 0 0 0 0 0 0 0 0 0 0 0 0 0 0 3 4 5 5 27 99 100 100 100 100 100 95 54 12 5 5 0 0 0 0 0 0 0 0 0 0 0 0
5 0 0 0 0 0 0 0 0 0 0 0 0 0 0 1 5 4 5 11 22 100 100 100 100 100 82 40 5 5 3 0 0 0 0 0 0 0 0 0 0 0 0 0
5 0 0 0 0 2 5 0 0 1 1 0 1 0 0 0 3 5 5 5 84 99 100 100 98 54 5 5 4 0 0 0 0 0 0 0 0 0 0 0 0 0 0 0
5 2 0 0 1 5 5 5 4 5 0 2 0 0 0 0 0 3 11 62 99 84 100 80 63 6 5 1 0 0 0 0 0 0 0 0 0 0 0 0 0 0 2 3
5 3 5 5 5 61 41 5 5 5 5 5 0 0 0 0 0 33 11 100 37 93 27 30 5 5 0 0 0 0 0 0 0 0 0 0 0 0 0 0 3 5 5 13
6 5 5 5 98 32 9 5 5 5 5 5 5 0 0 0 30 6 100 26 83 40 58 5 4 0 0 0 0 5 4 1 0 0 0 0 0 0 0 1 5 44 67 99
44 48 8 100 24 15 68 6 5 5 5 5 0 2 0 0 1 21 6 98 98 48 5 5 0 0 2 5 5 4 5 0 0 0 0 0 0 0 0 4 15 65 83 98
100 100 100 100 72 96 72 5 5 31 5 5 5 5 2 0 3 5 16 5 5 5 4 0 0 1 5 5 5 5 1 0 0 0 0 0 0 0 2 5 77 72 8 39